Clarksville, TN

8:55 PM CDT on March 28, 2017 (GMT -0500)
Outlaw

Weather History for KCKV - December, 2013

Change the Weather History Date:

Monday, December 2, 2013

  Actual Average Record
Temperature  
Mean Temperature 52 °F 42 °F  
Max Temperature 58 °F 52 °F 68 °F (1998)
Min Temperature 45 °F 32 °F 12 °F (1960)
Degree Days  
Heating Degree Days 13    
Month to date heating degree days 28  
Since 1 July heating degree days 861  
Cooling Degree Days 0    
Month to date cooling degree days 0  
Year to date cooling degree days  
Moisture  
Dew Point 43 °F    
Average Humidity 76    
Maximum Humidity 89    
Minimum Humidity 62    
Precipitation  
Precipitation 0.00 in 0.18 in 2.33 in (1991)
Month to date precipitation 0.00 0.36  
Year to date precipitation 45.51  
Sea Level Pressure  
Sea Level Pressure 29.82 in    
Wind  
Wind Speed 3 mph (SSE)    
Max Wind Speed 9 mph    
Max Gust Speed 12 mph    
Visibility 9 miles    
Events      
T = Trace of Precipitation, MM = Missing Value Source: NWS Daily Summary

Daily Weather History Graph

Daily Weather History Graph

Search for Another Location

Airport or City:

Trip Planner

Search our weather history database for the weather conditions in past years. The results will help you decide how hot, cold, wet, or windy it might be!

Date:

Astronomy

Dec. 02, 2013 Rise Set
Actual Time 6:44 AM CST 4:33 PM CST
Civil Twilight 6:15 AM CST 5:02 PM CST
Nautical Twilight 5:43 AM CST 5:34 PM CST
Astronomical Twilight 5:12 AM CST 6:05 PM CST
Moon 6:10 AM CST (12/2) 4:35 PM CST (12/2)
Length of Visible Light 10h 46m
Length of Day
9h 49m
Waning Crescent, 0% of the Moon is Illuminated
Dec 2
Waning Crescent
Dec 2
New
Dec 9
First Quarter
Dec 17
Full
Dec 25
Last Quarter

Hourly Weather History & Observations

Time (CST) Temp. Windchill Dew Point Humidity Pressure Visibility Wind Dir Wind Speed Gust Speed Precip Events Conditions
12:52 AM 46.9 °F - 37.0 °F 68% 29.93 in 10.0 mi Calm Calm - N/A   Overcast
1:52 AM 46.0 °F - 37.9 °F 73% 29.91 in 10.0 mi Calm Calm - N/A   Overcast
2:52 AM 46.9 °F - 37.9 °F 71% 29.90 in 10.0 mi Calm Calm - N/A   Overcast
3:52 AM 46.9 °F - 39.0 °F 74% 29.89 in 10.0 mi Calm Calm - N/A   Overcast
4:52 AM 46.0 °F 44.8 °F 39.0 °F 76% 29.88 in 10.0 mi ESE 3.5 mph - N/A   Overcast
5:00 AM 44.6 °F 43.1 °F 39.2 °F 81% 29.87 in 10.0 mi ESE 3.5 mph - N/A   Overcast
5:35 AM 46.4 °F - 39.2 °F 76% 29.88 in 10.0 mi Calm Calm - N/A   Overcast
5:52 AM 45.0 °F 43.5 °F 39.0 °F 80% 29.88 in 10.0 mi SSE 3.5 mph - N/A   Overcast
6:52 AM 46.0 °F 43.9 °F 39.0 °F 76% 29.87 in 10.0 mi SSE 4.6 mph - N/A   Overcast
7:29 AM 44.6 °F - 37.4 °F 76% 29.86 in 10.0 mi Calm Calm - N/A   Mostly Cloudy
7:50 AM 46.4 °F - 39.2 °F 76% 29.86 in 10.0 mi Calm Calm - N/A   Mostly Cloudy
7:52 AM 46.9 °F - 39.9 °F 77% 29.87 in 10.0 mi Calm Calm - N/A   Overcast
8:52 AM 50.0 °F - 42.1 °F 74% 29.86 in 10.0 mi South 3.5 mph - N/A   Overcast
9:52 AM 52.0 °F - 43.0 °F 71% 29.86 in 10.0 mi SSW 3.5 mph - N/A   Overcast
10:52 AM 54.0 °F - 43.0 °F 66% 29.84 in 10.0 mi SSE 4.6 mph - N/A   Overcast
11:18 AM 55.4 °F - 42.8 °F 63% 29.82 in 10.0 mi SE 5.8 mph - N/A   Overcast
11:52 AM 55.9 °F - 44.1 °F 64% 29.81 in 10.0 mi SSE 5.8 mph - N/A   Overcast
12:52 PM 57.0 °F - 44.1 °F 62% 29.78 in 10.0 mi SE 4.6 mph - N/A   Partly Cloudy
1:52 PM 57.9 °F - 45.0 °F 62% 29.75 in 10.0 mi SE 6.9 mph - N/A   Clear
2:52 PM 57.0 °F - 45.0 °F 64% 29.74 in 10.0 mi South 5.8 mph - N/A   Mostly Cloudy
3:52 PM 57.0 °F - 45.0 °F 64% 29.75 in 10.0 mi SSE 3.5 mph - N/A   Overcast
4:52 PM 55.0 °F - 45.0 °F 69% 29.76 in 10.0 mi Calm Calm - N/A   Overcast
5:19 PM 55.4 °F - 44.6 °F 67% 29.76 in 10.0 mi SE 3.5 mph - N/A   Overcast
5:52 PM 55.0 °F - 46.0 °F 72% 29.77 in 10.0 mi SE 4.6 mph - N/A   Overcast
6:52 PM 53.1 °F - 46.0 °F 77% 29.77 in 10.0 mi SE 4.6 mph - N/A   Overcast
7:03 PM 51.8 °F - 44.6 °F 76% 29.77 in 10.0 mi SE 4.6 mph - N/A   Mostly Cloudy
7:52 PM 50.0 °F - 45.0 °F 83% 29.78 in 10.0 mi SE 4.6 mph - N/A   Mostly Cloudy
8:52 PM 50.0 °F - 46.0 °F 86% 29.79 in 10.0 mi SSE 3.5 mph - N/A   Mostly Cloudy
9:12 PM 51.8 °F - 46.4 °F 82% 29.78 in 10.0 mi South 3.5 mph - N/A   Overcast
9:52 PM 51.1 °F - 48.0 °F 89% 29.79 in 9.0 mi SE 5.8 mph - N/A   Overcast
10:06 PM 51.8 °F - 48.2 °F 88% 29.79 in 9.0 mi SSE 4.6 mph - N/A   Overcast
10:17 PM 51.8 °F - 48.2 °F 88% 29.79 in 9.0 mi SSE 5.8 mph - N/A   Overcast
10:31 PM 50.0 °F - 46.4 °F 87% 29.79 in 8.0 mi SSE 3.5 mph - N/A   Mostly Cloudy
10:41 PM 50.0 °F - 46.4 °F 87% 29.79 in 7.0 mi SSE 3.5 mph - N/A   Mostly Cloudy
10:52 PM 50.0 °F - 46.9 °F 89% 29.79 in 6.0 mi SSE 3.5 mph - N/A   Scattered Clouds
11:02 PM 48.2 °F - 46.4 °F 93% 29.78 in 6.0 mi SE 3.5 mph - N/A   Mostly Cloudy
11:14 PM 48.2 °F - 46.4 °F 93% 29.79 in 5.0 mi ESE 3.5 mph - N/A   Scattered Clouds
11:52 PM 46.0 °F 43.1 °F 46.0 °F 100% 29.77 in 2.5 mi SE 5.8 mph - N/A   Clear